| time (UTC) | temp F | wind direction | speed MPH | gust MPH | rain 1hr in | rain 24hr in | rain mn in | humidity % | barometer mb |
| 20260510010423 | 70 | 67 | 19.0 | 26.0 | 0.00 | 0.00 | 0.00 | 46 | 1011.5 |
| 20260510010316 | 70 | 63 | 17.0 | 26.0 | 0.00 | 0.00 | 0.00 | 46 | 1011.4 |
| 20260510005427 | 71 | 77 | 16.0 | 23.0 | 0.00 | 0.00 | 0.00 | 45 | 1011.5 |
| 20260510005323 | 71 | 64 | 16.0 | 23.0 | 0.00 | 0.00 | 0.00 | 45 | 1011.5 |
| 20260510004415 | 72 | 52 | 15.0 | 24.0 | 0.00 | 0.00 | 0.00 | 44 | 1011.2 |
| 20260510004328 | 72 | 71 | 15.0 | 24.0 | 0.00 | 0.00 | 0.00 | 44 | 1011.2 |
| 20260510003419 | 73 | 67 | 19.0 | 26.0 | 0.00 | 0.00 | 0.00 | 42 | 1010.7 |
| 20260510003312 | 73 | 63 | 18.0 | 25.0 | 0.00 | 0.00 | 0.00 | 42 | 1010.6 |
| 20260510002424 | 74 | 65 | 19.0 | 27.0 | 0.00 | 0.00 | 0.00 | 41 | 1010.3 |
| 20260510002317 | 74 | 61 | 20.0 | 27.0 | 0.00 | 0.00 | 0.00 | 41 | 1010.3 |
| 20260510001428 | 75 | 65 | 22.0 | 32.0 | 0.00 | 0.00 | 0.00 | 40 | 1010.1 |
| 20260510001325 | 75 | 56 | 23.0 | 32.0 | 0.00 | 0.00 | 0.00 | 39 | 1010.1 |
| 20260510000418 | 77 | 55 | 24.0 | 31.0 | 0.00 | 0.00 | 0.00 | 38 | 1009.8 |
| 20260510000328 | 77 | 62 | 24.0 | 31.0 | 0.00 | 0.00 | 0.00 | 38 | 1009.8 |
| 20260509235420 | 78 | 67 | 15.0 | 22.0 | 0.00 | 0.00 | 0.00 | 34 | 1009.6 |
| 20260509235313 | 78 | 53 | 14.0 | 22.0 | 0.00 | 0.00 | 0.00 | 34 | 1009.6 |
| 20260509234446 | 78 | 29 | 15.0 | 31.0 | 0.00 | 0.00 | 0.00 | 34 | 1009.6 |
| 20260509234338 | 78 | 41 | 16.0 | 31.0 | 0.00 | 0.00 | 0.00 | 34 | 1009.7 |
| 20260509233428 | 79 | 32 | 12.0 | 23.0 | 0.00 | 0.00 | 0.00 | 36 | 1009.6 |
| 20260509233321 | 79 | 28 | 11.0 | 23.0 | 0.00 | 0.00 | 0.00 | 35 | 1009.7 |
| 20260509232416 | 79 | 33 | 14.0 | 20.0 | 0.00 | 0.00 | 0.00 | 35 | 1009.5 |
| 20260509232329 | 79 | 43 | 12.0 | 19.0 | 0.00 | 0.00 | 0.00 | 34 | 1009.5 |
| 20260509231421 | 80 | 36 | 14.0 | 24.0 | 0.00 | 0.00 | 0.00 | 34 | 1009.3 |
| 20260509231312 | 80 | 50 | 15.0 | 24.0 | 0.00 | 0.00 | 0.00 | 34 | 1009.2 |
| 20260509230423 | 80 | 19 | 15.0 | 23.0 | 0.00 | 0.00 | 0.00 | 33 | 1009.2 |
| 20260509230316 | 80 | 55 | 16.0 | 23.0 | 0.00 | 0.00 | 0.00 | 33 | 1009.1 |
| 20260509225425 | 81 | 17 | 13.0 | 22.0 | 0.00 | 0.00 | 0.00 | 31 | 1009.4 |
| 20260509225319 | 81 | 349 | 12.0 | 22.0 | 0.00 | 0.00 | 0.00 | 31 | 1009.5 |
| 20260509224414 | 81 | 22 | 11.0 | 22.0 | 0.00 | 0.00 | 0.00 | 30 | 1009.5 |
| 20260509224326 | 81 | 23 | 11.0 | 22.0 | 0.00 | 0.00 | 0.00 | 30 | 1009.5 |
| 20260509223416 | 81 | 14 | 12.0 | 26.0 | 0.00 | 0.00 | 0.00 | 32 | 1009.5 |
| 20260509223349 | 81 | 355 | 13.0 | 26.0 | 0.00 | 0.00 | 0.00 | 31 | 1009.5 |
| 20260509222418 | 81 | 306 | 15.0 | 24.0 | 0.00 | 0.00 | 0.00 | 31 | 1009.5 |
| 20260509222350 | 82 | 13 | 15.0 | 24.0 | 0.00 | 0.00 | 0.00 | 31 | 1009.5 |
| 20260509221440 | 82 | 342 | 14.0 | 21.0 | 0.00 | 0.00 | 0.00 | 30 | 1009.5 |
| 20260509221330 | 82 | 339 | 15.0 | 22.0 | 0.00 | 0.00 | 0.00 | 30 | 1009.5 |
| 20260509220421 | 82 | 329 | 17.0 | 26.0 | 0.00 | 0.00 | 0.00 | 32 | 1009.4 |
| 20260509220314 | 82 | 347 | 18.0 | 26.0 | 0.00 | 0.00 | 0.00 | 31 | 1009.5 |
| 20260509215426 | 82 | 344 | 18.0 | 23.0 | 0.00 | 0.00 | 0.00 | 30 | 1009.5 |
| 20260509215322 | 82 | 336 | 18.0 | 23.0 | 0.00 | 0.00 | 0.00 | 31 | 1009.5 |
| 20260509214413 | 82 | 360 | 12.0 | 25.0 | 0.00 | 0.00 | 0.00 | 30 | 1009.5 |
| 20260509214327 | 82 | 11 | 13.0 | 25.0 | 0.00 | 0.00 | 0.00 | 29 | 1009.5 |
| 20260509213418 | 82 | 344 | 19.0 | 25.0 | 0.00 | 0.00 | 0.00 | 29 | 1009.5 |
| 20260509213311 | 82 | 330 | 20.0 | 25.0 | 0.00 | 0.00 | 0.00 | 30 | 1009.5 |
| 20260509212422 | 83 | 346 | 19.0 | 28.0 | 0.00 | 0.00 | 0.00 | 29 | 1009.5 |
| 20260509212315 | 83 | 327 | 18.0 | 28.0 | 0.00 | 0.00 | 0.00 | 30 | 1009.5 |
| 20260509211411 | 82 | 349 | 15.0 | 26.0 | 0.00 | 0.00 | 0.00 | 32 | 1009.5 |
| 20260509211324 | 82 | 338 | 16.0 | 26.0 | 0.00 | 0.00 | 0.00 | 32 | 1009.6 |
| 20260509210416 | 82 | 339 | 17.0 | 28.0 | 0.00 | 0.00 | 0.00 | 32 | 1009.5 |
| 20260509210348 | 82 | 355 | 15.0 | 28.0 | 0.00 | 0.00 | 0.00 | 31 | 1009.4 |
| 20260509205417 | 82 | 340 | 16.0 | 27.0 | 0.00 | 0.00 | 0.00 | 30 | 1009.4 |
| 20260509205328 | 82 | 329 | 16.0 | 27.0 | 0.00 | 0.00 | 0.00 | 30 | 1009.4 |
| 20260509204440 | 83 | 299 | 17.0 | 22.0 | 0.00 | 0.00 | 0.00 | 32 | 1009.4 |
| 20260509204311 | 83 | 344 | 15.0 | 21.0 | 0.00 | 0.00 | 0.00 | 32 | 1009.5 |
| 20260509203424 | 83 | 332 | 18.0 | 28.0 | 0.00 | 0.00 | 0.00 | 31 | 1009.5 |
| 20260509203321 | 83 | 355 | 18.0 | 28.0 | 0.00 | 0.00 | 0.00 | 31 | 1009.5 |
| 20260509202411 | 83 | 322 | 19.0 | 25.0 | 0.00 | 0.00 | 0.00 | 30 | 1009.6 |
| 20260509202323 | 83 | 327 | 17.0 | 25.0 | 0.00 | 0.00 | 0.00 | 30 | 1009.5 |
| 20260509201414 | 83 | 346 | 12.0 | 28.0 | 0.00 | 0.00 | 0.00 | 33 | 1009.5 |
| 20260509201347 | 83 | 327 | 14.0 | 28.0 | 0.00 | 0.00 | 0.00 | 33 | 1009.5 |
| 20260509200418 | 84 | 308 | 16.0 | 25.0 | 0.00 | 0.00 | 0.00 | 32 | 1009.4 |
| 20260509200311 | 84 | 321 | 15.0 | 25.0 | 0.00 | 0.00 | 0.00 | 32 | 1009.5 |
| 20260509195422 | 83 | 325 | 16.0 | 25.0 | 0.00 | 0.00 | 0.00 | 32 | 1009.3 |
| 20260509195314 | 84 | 306 | 15.0 | 25.0 | 0.00 | 0.00 | 0.00 | 32 | 1009.4 |
| 20260509194425 | 83 | 60 | 14.0 | 19.0 | 0.00 | 0.00 | 0.00 | 31 | 1009.3 |
| 20260509194322 | 83 | 329 | 13.0 | 19.0 | 0.00 | 0.00 | 0.00 | 34 | 1009.3 |
| 20260509193413 | 84 | 331 | 7.0 | 21.0 | 0.00 | 0.00 | 0.00 | 31 | 1009.2 |
| 20260509193327 | 84 | 332 | 7.0 | 21.0 | 0.00 | 0.00 | 0.00 | 31 | 1009.2 |
| 20260509192418 | 83 | 328 | 14.0 | 22.0 | 0.00 | 0.00 | 0.00 | 33 | 1009.1 |
| 20260509192310 | 83 | 304 | 15.0 | 22.0 | 0.00 | 0.00 | 0.00 | 33 | 1009.2 |
| 20260509191423 | 84 | 314 | 11.0 | 20.0 | 0.00 | 0.00 | 0.00 | 31 | 1009.3 |
| 20260509191315 | 83 | 28 | 11.0 | 20.0 | 0.00 | 0.00 | 0.00 | 31 | 1009.2 |
| 20260509190426 | 83 | 266 | 10.0 | 20.0 | 0.00 | 0.00 | 0.00 | 33 | 1009.1 |
| 20260509190342 | 83 | 325 | 8.0 | 20.0 | 0.00 | 0.00 | 0.00 | 31 | 1009.2 |
| 20260509185411 | 83 | 345 | 13.0 | 19.0 | 0.00 | 0.00 | 0.00 | 32 | 1009.1 |
| 20260509185324 | 83 | 340 | 13.0 | 19.0 | 0.00 | 0.00 | 0.00 | 31 | 1009.2 |
| 20260509184414 | 83 | 284 | 8.0 | 17.0 | 0.00 | 0.00 | 0.00 | 31 | 1009.3 |
| 20260509184327 | 83 | 259 | 10.0 | 17.0 | 0.00 | 0.00 | 0.00 | 31 | 1009.3 |
| 20260509183418 | 82 | 289 | 11.0 | 18.0 | 0.00 | 0.00 | 0.00 | 34 | 1009.5 |
| 20260509183312 | 82 | 288 | 13.0 | 18.0 | 0.00 | 0.00 | 0.00 | 34 | 1009.5 |
| 20260509182444 | 82 | 321 | 8.0 | 14.0 | 0.00 | 0.00 | 0.00 | 33 | 1009.6 |
| 20260509182314 | 82 | 303 | 6.0 | 14.0 | 0.00 | 0.00 | 0.00 | 32 | 1009.6 |
| 20260509181427 | 81 | 325 | 11.0 | 16.0 | 0.00 | 0.00 | 0.00 | 34 | 1009.7 |
| 20260509181323 | 81 | 334 | 10.0 | 14.0 | 0.00 | 0.00 | 0.00 | 36 | 1009.7 |
| 20260509180449 | 79 | 325 | 5.0 | 12.0 | 0.00 | 0.00 | 0.00 | 36 | 1009.7 |
| 20260509180320 | 79 | 346 | 3.0 | 14.0 | 0.00 | 0.00 | 0.00 | 37 | 1009.7 |
| 20260509175432 | 78 | 272 | 6.0 | 14.0 | 0.00 | 0.00 | 0.00 | 36 | 1009.9 |
| 20260509175324 | 78 | 281 | 7.0 | 14.0 | 0.00 | 0.00 | 0.00 | 36 | 1009.9 |
| 20260509174415 | 78 | 315 | 7.0 | 12.0 | 0.00 | 0.00 | 0.00 | 38 | 1010.0 |
| 20260509174328 | 78 | 306 | 7.0 | 12.0 | 0.00 | 0.00 | 0.00 | 38 | 1010.0 |
| 20260509173420 | 78 | 338 | 7.0 | 14.0 | 0.00 | 0.00 | 0.00 | 37 | 1010.1 |
| 20260509173332 | 78 | 273 | 6.0 | 13.0 | 0.00 | 0.00 | 0.00 | 36 | 1010.0 |
| 20260509172421 | 78 | 250 | 10.0 | 15.0 | 0.00 | 0.00 | 0.00 | 38 | 1010.1 |
| 20260509172318 | 78 | 264 | 11.0 | 15.0 | 0.00 | 0.00 | 0.00 | 39 | 1010.1 |
| 20260509171431 | 78 | 219 | 11.0 | 19.0 | 0.00 | 0.00 | 0.00 | 38 | 1010.0 |
| 20260509171322 | 78 | 203 | 11.0 | 19.0 | 0.00 | 0.00 | 0.00 | 37 | 1010.1 |
| 20260509170415 | 78 | 234 | 10.0 | 17.0 | 0.00 | 0.00 | 0.00 | 39 | 1010.2 |
| 20260509170328 | 78 | 274 | 11.0 | 17.0 | 0.00 | 0.00 | 0.00 | 40 | 1010.2 |
| 20260509165440 | 78 | 260 | 12.0 | 21.0 | 0.00 | 0.00 | 0.00 | 38 | 1010.3 |
| 20260509165333 | 78 | 227 | 13.0 | 21.0 | 0.00 | 0.00 | 0.00 | 37 | 1010.3 |
| 20260509164421 | 78 | 241 | 12.0 | 20.0 | 0.00 | 0.00 | 0.00 | 37 | 1010.1 |
| 20260509164318 | 78 | 253 | 13.0 | 20.0 | 0.00 | 0.00 | 0.00 | 38 | 1010.1 |
| 20260509163430 | 77 | 253 | 16.0 | 24.0 | 0.00 | 0.00 | 0.00 | 39 | 1010.2 |
| 20260509163323 | 76 | 234 | 15.0 | 24.0 | 0.00 | 0.00 | 0.00 | 39 | 1010.2 |
| 20260509162412 | 75 | 217 | 17.0 | 21.0 | 0.00 | 0.00 | 0.00 | 40 | 1010.3 |
| 20260509162326 | 75 | 229 | 17.0 | 25.0 | 0.00 | 0.00 | 0.00 | 40 | 1010.3 |
| 20260509161417 | 75 | 209 | 16.0 | 28.0 | 0.00 | 0.00 | 0.00 | 40 | 1010.1 |
| 20260509161329 | 75 | 202 | 16.0 | 28.0 | 0.00 | 0.00 | 0.00 | 39 | 1010.1 |
| 20260509160419 | 75 | 198 | 20.0 | 26.0 | 0.00 | 0.00 | 0.00 | 40 | 1010.1 |
| 20260509160331 | 75 | 209 | 19.0 | 25.0 | 0.00 | 0.00 | 0.00 | 39 | 1010.1 |
| 20260509155441 | 74 | 209 | 21.0 | 31.0 | 0.00 | 0.00 | 0.00 | 40 | 1010.1 |
| 20260509155316 | 74 | 196 | 20.0 | 31.0 | 0.00 | 0.00 | 0.00 | 41 | 1010.1 |
| 20260509154408 | 74 | 215 | 19.0 | 31.0 | 0.00 | 0.00 | 0.00 | 41 | 1010.3 |
| 20260509154341 | 74 | 219 | 20.0 | 31.0 | 0.00 | 0.00 | 0.00 | 41 | 1010.3 |
| 20260509153411 | 73 | 212 | 20.0 | 27.0 | 0.00 | 0.00 | 0.00 | 42 | 1010.5 |
| 20260509153325 | 73 | 186 | 20.0 | 27.0 | 0.00 | 0.00 | 0.00 | 42 | 1010.4 |
| 20260509152414 | 71 | 236 | 20.0 | 27.0 | 0.00 | 0.00 | 0.00 | 43 | 1010.7 |
| 20260509152327 | 71 | 183 | 20.0 | 27.0 | 0.00 | 0.00 | 0.00 | 43 | 1010.7 |
| 20260509151419 | 70 | 215 | 18.0 | 27.0 | 0.00 | 0.00 | 0.00 | 44 | 1010.8 |
| 20260509151316 | 70 | 198 | 18.0 | 27.0 | 0.00 | 0.00 | 0.00 | 45 | 1010.8 |
| 20260509150429 | 69 | 192 | 19.0 | 27.0 | 0.00 | 0.00 | 0.00 | 46 | 1011.0 |
| 20260509150318 | 69 | 163 | 20.0 | 27.0 | 0.00 | 0.00 | 0.00 | 46 | 1011.0 |
| 20260509145409 | 68 | 215 | 19.0 | 26.0 | 0.00 | 0.00 | 0.00 | 47 | 1011.0 |
| 20260509145321 | 68 | 197 | 20.0 | 26.0 | 0.00 | 0.00 | 0.00 | 47 | 1011.0 |
| 20260509144413 | 67 | 185 | 17.0 | 26.0 | 0.00 | 0.00 | 0.00 | 50 | 1011.1 |
| 20260509144326 | 67 | 196 | 18.0 | 26.0 | 0.00 | 0.00 | 0.00 | 50 | 1011.1 |
| 20260509143417 | 65 | 217 | 18.0 | 24.0 | 0.00 | 0.00 | 0.00 | 53 | 1011.2 |
| 20260509143314 | 65 | 191 | 16.0 | 28.0 | 0.00 | 0.00 | 0.00 | 53 | 1011.2 |
| 20260509142441 | 64 | 219 | 18.0 | 34.0 | 0.00 | 0.00 | 0.00 | 53 | 1011.3 |
| 20260509142314 | 64 | 215 | 19.0 | 34.0 | 0.00 | 0.00 | 0.00 | 53 | 1011.3 |
| 20260509141426 | 63 | 187 | 17.0 | 28.0 | 0.00 | 0.00 | 0.00 | 55 | 1011.4 |
| 20260509141318 | 63 | 205 | 18.0 | 28.0 | 0.00 | 0.00 | 0.00 | 55 | 1011.4 |
| 20260509140409 | 62 | 166 | 18.0 | 31.0 | 0.00 | 0.00 | 0.00 | 54 | 1011.7 |
| 20260509140343 | 62 | 204 | 22.0 | 31.0 | 0.00 | 0.00 | 0.00 | 54 | 1011.8 |
| 20260509135411 | 62 | 202 | 20.0 | 26.0 | 0.00 | 0.00 | 0.00 | 55 | 1011.9 |
| 20260509135322 | 61 | 217 | 21.0 | 29.0 | 0.00 | 0.00 | 0.00 | 55 | 1011.9 |
| 20260509134412 | 60 | 222 | 16.0 | 22.0 | 0.00 | 0.00 | 0.00 | 58 | 1011.9 |
| 20260509134308 | 60 | 194 | 18.0 | 22.0 | 0.00 | 0.00 | 0.00 | 57 | 1011.9 |
| 20260509133419 | 58 | 221 | 15.0 | 22.0 | 0.00 | 0.00 | 0.00 | 61 | 1011.9 |
| 20260509133313 | 58 | 221 | 14.0 | 23.0 | 0.00 | 0.00 | 0.00 | 61 | 1011.9 |
| 20260509132424 | 56 | 228 | 13.0 | 18.0 | 0.00 | 0.00 | 0.00 | 67 | 1011.8 |
| 20260509132316 | 56 | 232 | 13.0 | 18.0 | 0.00 | 0.00 | 0.00 | 68 | 1011.8 |
| 20260509131408 | 54 | 240 | 11.0 | 17.0 | 0.00 | 0.00 | 0.00 | 71 | 1011.8 |
| 20260509131341 | 54 | 240 | 11.0 | 17.0 | 0.00 | 0.00 | 0.00 | 72 | 1011.8 |
| 20260509130430 | 52 | 225 | 11.0 | 14.0 | 0.00 | 0.00 | 0.00 | 76 | 1011.7 |
| 20260509130321 | 52 | 221 | 11.0 | 14.0 | 0.00 | 0.00 | 0.00 | 76 | 1011.7 |
| 20260509125413 | 51 | 223 | 9.0 | 14.0 | 0.00 | 0.00 | 0.00 | 76 | 1011.7 |
| 20260509125309 | 51 | 246 | 10.0 | 14.0 | 0.00 | 0.00 | 0.00 | 76 | 1011.7 |
| 20260509124421 | 51 | 226 | 11.0 | 15.0 | 0.00 | 0.00 | 0.00 | 75 | 1011.6 |
| 20260509124315 | 52 | 221 | 12.0 | 15.0 | 0.00 | 0.00 | 0.00 | 74 | 1011.6 |
| 20260509123426 | 51 | 232 | 10.0 | 16.0 | 0.00 | 0.00 | 0.00 | 74 | 1011.6 |
| 20260509123339 | 51 | 233 | 10.0 | 16.0 | 0.00 | 0.00 | 0.00 | 74 | 1011.5 |
| 20260509122409 | 51 | 220 | 10.0 | 16.0 | 0.00 | 0.00 | 0.00 | 75 | 1011.5 |
| 20260509122322 | 51 | 217 | 10.0 | 16.0 | 0.00 | 0.00 | 0.00 | 75 | 1011.4 |
| 20260509121412 | 50 | 211 | 10.0 | 14.0 | 0.00 | 0.00 | 0.00 | 76 | 1011.4 |
| 20260509121330 | 50 | 188 | 10.0 | 14.0 | 0.00 | 0.00 | 0.00 | 76 | 1011.3 |
| 20260509120421 | 50 | 213 | 9.0 | 14.0 | 0.00 | 0.00 | 0.00 | 76 | 1011.3 |
| 20260509120314 | 50 | 227 | 9.0 | 14.0 | 0.00 | 0.00 | 0.00 | 76 | 1011.2 |
| 20260509115427 | 50 | 221 | 10.0 | 12.0 | 0.00 | 0.00 | 0.00 | 76 | 1011.3 |
| 20260509115319 | 50 | 209 | 10.0 | 14.0 | 0.00 | 0.00 | 0.00 | 76 | 1011.3 |
| 20260509114411 | 50 | 206 | 10.0 | 14.0 | 0.00 | 0.00 | 0.00 | 76 | 1011.1 |
| 20260509114323 | 50 | 197 | 10.0 | 14.0 | 0.00 | 0.00 | 0.00 | 76 | 1011.1 |
| 20260509113414 | 50 | 221 | 9.0 | 11.0 | 0.00 | 0.00 | 0.00 | 75 | 1011.2 |
| 20260509113327 | 50 | 211 | 9.0 | 11.0 | 0.00 | 0.00 | 0.00 | 75 | 1011.2 |
| 20260509112416 | 50 | 216 | 10.0 | 14.0 | 0.00 | 0.00 | 0.00 | 75 | 1011.3 |
| 20260509112312 | 50 | 212 | 10.0 | 13.0 | 0.00 | 0.00 | 0.00 | 75 | 1011.2 |
| 20260509111422 | 50 | 219 | 9.0 | 13.0 | 0.00 | 0.00 | 0.00 | 75 | 1011.3 |
| 20260509111315 | 50 | 209 | 9.0 | 13.0 | 0.00 | 0.00 | 0.00 | 75 | 1011.3 |
| 20260509110442 | 50 | 217 | 9.0 | 14.0 | 0.00 | 0.00 | 0.00 | 76 | 1011.2 |
| 20260509110315 | 50 | 216 | 10.0 | 14.0 | 0.00 | 0.00 | 0.00 | 76 | 1011.2 |
| 20260509105428 | 50 | 221 | 9.0 | 14.0 | 0.00 | 0.00 | 0.00 | 77 | 1011.2 |
| 20260509105319 | 50 | 223 | 10.0 | 14.0 | 0.00 | 0.00 | 0.00 | 77 | 1011.3 |
| 20260509104431 | 51 | 231 | 9.0 | 12.0 | 0.00 | 0.00 | 0.00 | 76 | 1011.3 |
| 20260509104323 | 51 | 214 | 9.0 | 12.0 | 0.00 | 0.00 | 0.00 | 76 | 1011.2 |
| 20260509103412 | 52 | 230 | 10.0 | 13.0 | 0.00 | 0.00 | 0.00 | 75 | 1011.3 |
| 20260509103350 | 52 | 221 | 10.0 | 13.0 | 0.00 | 0.00 | 0.00 | 75 | 1011.3 |
| 20260509102419 | 51 | 235 | 8.0 | 12.0 | 0.00 | 0.00 | 0.00 | 76 | 1011.6 |
| 20260509102332 | 51 | 232 | 9.0 | 12.0 | 0.00 | 0.00 | 0.00 | 76 | 1011.6 |
| 20260509101420 | 51 | 209 | 10.0 | 14.0 | 0.00 | 0.00 | 0.00 | 75 | 1011.5 |
| 20260509101311 | 51 | 199 | 10.0 | 14.0 | 0.00 | 0.00 | 0.00 | 75 | 1011.5 |
| 20260509100420 | 51 | 227 | 10.0 | 14.0 | 0.00 | 0.00 | 0.00 | 75 | 1011.6 |
| 20260509100333 | 51 | 220 | 10.0 | 13.0 | 0.00 | 0.00 | 0.00 | 75 | 1011.6 |
| 20260509095424 | 51 | 217 | 9.0 | 14.0 | 0.00 | 0.00 | 0.00 | 75 | 1011.6 |
| 20260509095315 | 51 | 230 | 9.0 | 13.0 | 0.00 | 0.00 | 0.00 | 75 | 1011.6 |
| 20260509094425 | 50 | 213 | 10.0 | 14.0 | 0.00 | 0.00 | 0.00 | 76 | 1011.6 |
| 20260509094322 | 50 | 208 | 10.0 | 14.0 | 0.00 | 0.00 | 0.00 | 76 | 1011.5 |
| 20260509093414 | 50 | 224 | 9.0 | 11.0 | 0.00 | 0.00 | 0.00 | 76 | 1011.6 |
| 20260509093327 | 50 | 220 | 9.0 | 11.0 | 0.00 | 0.00 | 0.00 | 77 | 1011.6 |
| 20260509092419 | 50 | 223 | 9.0 | 11.0 | 0.00 | 0.00 | 0.00 | 76 | 1011.5 |
| 20260509092311 | 50 | 220 | 10.0 | 11.0 | 0.00 | 0.00 | 0.00 | 75 | 1011.6 |
| 20260509091422 | 51 | 219 | 9.0 | 12.0 | 0.00 | 0.00 | 0.00 | 74 | 1011.7 |
| 20260509091314 | 51 | 205 | 9.0 | 12.0 | 0.00 | 0.00 | 0.00 | 74 | 1011.7 |
| 20260509090427 | 51 | 203 | 9.0 | 14.0 | 0.00 | 0.00 | 0.00 | 74 | 1011.6 |
| 20260509090319 | 51 | 204 | 9.0 | 14.0 | 0.00 | 0.00 | 0.00 | 74 | 1011.6 |
| 20260509085415 | 51 | 215 | 10.0 | 15.0 | 0.00 | 0.00 | 0.00 | 75 | 1011.6 |
| 20260509085326 | 50 | 203 | 10.0 | 15.0 | 0.00 | 0.00 | 0.00 | 75 | 1011.6 |
| 20260509084416 | 50 | 207 | 10.0 | 14.0 | 0.00 | 0.00 | 0.00 | 75 | 1011.3 |
| 20260509084329 | 50 | 196 | 10.0 | 13.0 | 0.00 | 0.00 | 0.00 | 75 | 1011.3 |
| 20260509083418 | 51 | 205 | 9.0 | 12.0 | 0.00 | 0.00 | 0.00 | 74 | 1011.7 |
| 20260509083329 | 51 | 207 | 9.0 | 12.0 | 0.00 | 0.00 | 0.00 | 74 | 1011.7 |
| 20260509082419 | 51 | 191 | 10.0 | 13.0 | 0.00 | 0.00 | 0.00 | 73 | 1011.7 |
| 20260509082310 | 51 | 224 | 10.0 | 14.0 | 0.00 | 0.00 | 0.00 | 73 | 1011.7 |
| 20260509081423 | 51 | 229 | 9.0 | 14.0 | 0.00 | 0.00 | 0.00 | 72 | 1011.7 |
| 20260509081319 | 51 | 207 | 9.0 | 15.0 | 0.00 | 0.00 | 0.00 | 72 | 1011.7 |
| 20260509080412 | 50 | 205 | 10.0 | 12.0 | 0.00 | 0.00 | 0.00 | 75 | 1011.7 |
| 20260509080343 | 50 | 221 | 10.0 | 12.0 | 0.00 | 0.00 | 0.00 | 76 | 1011.7 |
| 20260509075413 | 49 | 211 | 8.0 | 10.0 | 0.00 | 0.00 | 0.00 | 78 | 1011.8 |
| 20260509075325 | 49 | 205 | 8.0 | 11.0 | 0.00 | 0.00 | 0.00 | 78 | 1011.8 |
| 20260509074415 | 48 | 215 | 8.0 | 11.0 | 0.00 | 0.00 | 0.00 | 79 | 1011.8 |
| 20260509074348 | 48 | 225 | 8.0 | 11.0 | 0.00 | 0.00 | 0.00 | 79 | 1011.8 |
| 20260509073439 | 48 | 207 | 8.0 | 10.0 | 0.00 | 0.00 | 0.00 | 79 | 1011.9 |
| 20260509073311 | 48 | 220 | 8.0 | 10.0 | 0.00 | 0.00 | 0.00 | 79 | 1011.8 |
| 20260509072443 | 48 | 219 | 8.0 | 11.0 | 0.00 | 0.00 | 0.00 | 80 | 1012.1 |
| 20260509072319 | 48 | 213 | 8.0 | 11.0 | 0.00 | 0.00 | 0.00 | 80 | 1012.1 |
| 20260509071411 | 47 | 216 | 8.0 | 11.0 | 0.00 | 0.00 | 0.00 | 81 | 1012.1 |
| 20260509071344 | 47 | 211 | 8.0 | 11.0 | 0.00 | 0.00 | 0.00 | 81 | 1012.2 |
| 20260509070415 | 46 | 203 | 8.0 | 10.0 | 0.00 | 0.00 | 0.00 | 83 | 1012.3 |
| 20260509070328 | 46 | 226 | 8.0 | 10.0 | 0.00 | 0.00 | 0.00 | 83 | 1012.3 |
| 20260509065418 | 46 | 225 | 7.0 | 10.0 | 0.00 | 0.00 | 0.00 | 83 | 1012.3 |
| 20260509065310 | 46 | 225 | 7.0 | 10.0 | 0.00 | 0.00 | 0.00 | 82 | 1012.3 |
| 20260509064420 | 47 | 210 | 8.0 | 9.0 | 0.00 | 0.00 | 0.00 | 81 | 1012.3 |
| 20260509064317 | 47 | 223 | 7.0 | 10.0 | 0.00 | 0.00 | 0.00 | 82 | 1012.2 |
| 20260509063408 | 47 | 218 | 6.0 | 9.0 | 0.00 | 0.00 | 0.00 | 81 | 1012.1 |
| 20260509063322 | 47 | 219 | 6.0 | 9.0 | 0.00 | 0.00 | 0.00 | 81 | 1012.2 |
| 20260509062414 | 47 | 215 | 7.0 | 9.0 | 0.00 | 0.00 | 0.00 | 82 | 1012.4 |
| 20260509062326 | 47 | 213 | 7.0 | 9.0 | 0.00 | 0.00 | 0.00 | 82 | 1012.4 |
| 20260509061416 | 47 | 220 | 7.0 | 9.0 | 0.00 | 0.00 | 0.00 | 81 | 1012.5 |
| 20260509061349 | 47 | 223 | 7.0 | 9.0 | 0.00 | 0.00 | 0.00 | 81 | 1012.5 |
| 20260509060418 | 47 | 229 | 7.0 | 8.0 | 0.00 | 0.00 | 0.00 | 80 | 1012.4 |
| 20260509060310 | 47 | 236 | 7.0 | 9.0 | 0.00 | 0.00 | 0.00 | 80 | 1012.4 |
| 20260509055442 | 47 | 231 | 7.0 | 10.0 | 0.00 | 0.00 | 0.00 | 80 | 1012.6 |
| 20260509055316 | 47 | 220 | 7.0 | 10.0 | 0.00 | 0.00 | 0.00 | 80 | 1012.6 |
| 20260509054449 | 48 | 232 | 7.0 | 9.0 | 0.00 | 0.00 | 0.00 | 79 | 1012.6 |
| 20260509054321 | 48 | 219 | 7.0 | 9.0 | 0.00 | 0.00 | 0.00 | 77 | 1012.6 |
| 20260509053410 | 48 | 229 | 7.0 | 8.0 | 0.00 | 0.00 | 0.00 | 76 | 1012.5 |
| 20260509053324 | 48 | 231 | 6.0 | 7.0 | 0.00 | 0.00 | 0.00 | 76 | 1012.5 |
| 20260509052416 | 49 | 237 | 7.0 | 9.0 | 0.00 | 0.00 | 0.00 | 75 | 1012.7 |
| 20260509052329 | 49 | 229 | 7.0 | 9.0 | 0.00 | 0.00 | 0.00 | 75 | 1012.7 |
| 20260509051419 | 50 | 235 | 5.0 | 8.0 | 0.00 | 0.00 | 0.00 | 72 | 1012.7 |
| 20260509051316 | 50 | 240 | 4.0 | 8.0 | 0.00 | 0.00 | 0.00 | 71 | 1012.7 |
| 20260509050427 | 51 | 242 | 4.0 | 7.0 | 0.00 | 0.00 | 0.00 | 69 | 1012.8 |
| 20260509050320 | 51 | 230 | 5.0 | 7.0 | 0.00 | 0.00 | 0.00 | 69 | 1012.7 |
| 20260509045432 | 53 | 215 | 4.0 | 5.0 | 0.00 | 0.00 | 0.00 | 65 | 1012.8 |
| 20260509045322 | 53 | 221 | 4.0 | 5.0 | 0.00 | 0.00 | 0.00 | 65 | 1012.8 |
| 20260509044413 | 53 | 213 | 3.0 | 4.0 | 0.00 | 0.00 | 0.00 | 64 | 1012.8 |
| 20260509044326 | 53 | 204 | 3.0 | 4.0 | 0.00 | 0.00 | 0.00 | 64 | 1012.8 |
| 20260509043416 | 52 | 205 | 4.0 | 5.0 | 0.00 | 0.00 | 0.00 | 65 | 1012.8 |
| 20260509043310 | 52 | 210 | 4.0 | 5.0 | 0.00 | 0.00 | 0.00 | 65 | 1012.8 |
| 20260509042422 | 54 | 215 | 4.0 | 6.0 | 0.00 | 0.00 | 0.00 | 64 | 1013.0 |
| 20260509042318 | 54 | 217 | 4.0 | 6.0 | 0.00 | 0.00 | 0.00 | 63 | 1013.0 |
| 20260509041431 | 56 | 203 | 3.0 | 5.0 | 0.00 | 0.00 | 0.00 | 58 | 1012.9 |
| 20260509041321 | 56 | 150 | 2.0 | 5.0 | 0.00 | 0.00 | 0.00 | 58 | 1012.9 |
| 20260509040412 | 56 | 157 | 3.0 | 4.0 | 0.00 | 0.00 | 0.00 | 56 | 1012.9 |
| 20260509040325 | 56 | 147 | 3.0 | 4.0 | 0.00 | 0.00 | 0.00 | 56 | 1012.8 |
| 20260509035435 | 55 | 187 | 2.0 | 3.0 | 0.00 | 0.00 | 0.00 | 58 | 1012.8 |
| 20260509035348 | 55 | 187 | 2.0 | 3.0 | 0.00 | 0.00 | 0.00 | 58 | 1012.9 |
| 20260509034418 | 54 | 187 | 2.0 | 4.0 | 0.00 | 0.00 | 0.00 | 60 | 1012.8 |
| 20260509034329 | 54 | 187 | 2.0 | 4.0 | 0.00 | 0.00 | 0.00 | 60 | 1012.8 |
| 20260509033420 | 55 | 146 | 1.0 | 3.0 | 0.00 | 0.00 | 0.00 | 62 | 1012.8 |
| 20260509033315 | 55 | 125 | 0.0 | 0.0 | 0.00 | 0.00 | 0.00 | 60 | 1012.7 |
| 20260509032427 | 55 | 125 | 0.0 | 0.0 | 0.00 | 0.00 | 0.00 | 63 | 1012.6 |
| 20260509032318 | 55 | 125 | 0.0 | 0.0 | 0.00 | 0.00 | 0.00 | 64 | 1012.7 |
| 20260509031410 | 55 | 125 | 0.0 | 0.0 | 0.00 | 0.00 | 0.00 | 57 | 1012.6 |
| 20260509031323 | 56 | 125 | 0.0 | 0.0 | 0.00 | 0.00 | 0.00 | 57 | 1012.5 |
| 20260509030413 | 55 | 125 | 0.0 | 0.0 | 0.00 | 0.00 | 0.00 | 59 | 1012.4 |
| 20260509030323 | 55 | 125 | 0.0 | 0.0 | 0.00 | 0.00 | 0.00 | 59 | 1012.4 |
| 20260509025435 | 56 | 125 | 0.0 | 0.0 | 0.00 | 0.00 | 0.00 | 65 | 1012.3 |
| 20260509025346 | 56 | 125 | 0.0 | 0.0 | 0.00 | 0.00 | 0.00 | 65 | 1012.4 |
| 20260509024418 | 56 | 56 | 0.0 | 0.0 | 0.00 | 0.00 | 0.00 | 59 | 1012.2 |
| 20260509024315 | 56 | 56 | 0.0 | 0.0 | 0.00 | 0.00 | 0.00 | 59 | 1012.2 |
| 20260509023447 | 57 | 17 | 0.0 | 0.0 | 0.00 | 0.00 | 0.00 | 59 | 1012.2 |
| 20260509023320 | 57 | 17 | 0.0 | 0.0 | 0.00 | 0.00 | 0.00 | 61 | 1012.2 |
| 20260509022410 | 58 | 17 | 0.0 | 0.0 | 0.00 | 0.00 | 0.00 | 65 | 1012.0 |
| 20260509022343 | 58 | 17 | 0.0 | 0.0 | 0.00 | 0.00 | 0.00 | 61 | 1012.0 |
| 20260509021413 | 60 | 17 | 0.0 | 1.0 | 0.00 | 0.00 | 0.00 | 62 | 1012.1 |
| 20260509021325 | 60 | 17 | 0.0 | 0.0 | 0.00 | 0.00 | 0.00 | 62 | 1012.1 |
| 20260509020418 | 62 | 17 | 0.0 | 2.0 | 0.00 | 0.00 | 0.00 | 58 | 1012.0 |
| 20260509020314 | 62 | 17 | 0.0 | 2.0 | 0.00 | 0.00 | 0.00 | 58 | 1011.9 |
| 20260509015427 | 63 | 16 | 2.0 | 2.0 | 0.00 | 0.00 | 0.00 | 48 | 1012.0 |
| 20260509015319 | 63 | 16 | 1.0 | 2.0 | 0.00 | 0.00 | 0.00 | 47 | 1011.9 |
| 20260509014410 | 64 | 355 | 1.0 | 3.0 | 0.00 | 0.00 | 0.00 | 46 | 1012.0 |
| 20260509014323 | 65 | 355 | 2.0 | 3.0 | 0.00 | 0.00 | 0.00 | 49 | 1012.0 |
| 20260509013433 | 66 | 338 | 1.0 | 3.0 | 0.00 | 0.00 | 0.00 | 48 | 1011.9 |
| 20260509013326 | 66 | 338 | 1.0 | 3.0 | 0.00 | 0.00 | 0.00 | 48 | 1011.9 |
| 20260509012418 | 67 | 350 | 0.0 | 0.0 | 0.00 | 0.00 | 0.00 | 47 | 1011.8 |
| 20260509012311 | 67 | 350 | 0.0 | 2.0 | 0.00 | 0.00 | 0.00 | 48 | 1011.8 |
| 20260509011422 | 68 | 344 | 1.0 | 4.0 | 0.00 | 0.00 | 0.00 | 43 | 1011.8 |
| 20260509011340 | 68 | 340 | 2.0 | 5.0 | 0.00 | 0.00 | 0.00 | 43 | 1011.8 |